Simultaneous Nadir Overpasses (SNOs) Predictions

Prediction of SNOs between AQUA and METOP-A Satellite Orbit:

Table of predicted SNOs for the next 14.0 days since TLE Epoch: 12/9/2017
Index Date (AQUA) Time (AQUA) Lat,Lon (AQUA) SZA (AQUA ) Date (METOP-A) Time (METOP-A) Lat,Lon (METOP-A) SZA (METOP-A ) Distance(km) Time Diff (sec)
1 12/11/2017 17:59:05 73.75, -95.42 96.74 12/11/2017 17:57:55 73.65, -96.87 96.69 46.34 70
2 12/11/2017 18:48:37 -74.07, 71.51 82.93 12/11/2017 18:48:29 -74.06, 71.43 82.93 2.51 8
3 12/11/2017 19:38:06 74.16,-121.07 97.18 12/11/2017 19:39:07 74.12,-121.07 97.14 3.77 61
4 12/14/2017 13:33:24 73.97, -29.46 97.16 12/14/2017 13:32:11 73.94, -29.79 97.15 10.47 73
5 12/14/2017 14:22:52 -74.08, 137.93 82.72 12/14/2017 14:22:50 -74.10, 137.93 82.70 2.78 2
6 12/14/2017 15:12:21 74.17, -54.65 97.38 12/14/2017 15:13:28 74.17, -54.57 97.37 2.35 67
7 12/17/2017 09:07:39 74.03, 36.82 97.37 12/17/2017 09:06:31 74.04, 36.85 97.38 0.90 68
8 12/17/2017 09:57:06 -74.09,-155.67 82.57 12/17/2017 09:57:12 -74.11,-155.66 82.56 1.48 6
9 12/17/2017 10:46:36 74.24, 11.63 97.59 12/17/2017 10:47:48 74.27, 12.07 97.60 13.67 72
10 12/20/2017 04:41:54 74.06, 103.21 97.47 12/20/2017 04:40:55 74.05, 103.27 97.47 1.75 59
11 12/20/2017 05:31:21 -74.12, -89.28 82.47 12/20/2017 05:31:36 -74.12, -89.23 82.47 1.62 15
12 12/20/2017 06:20:58 74.62, 77.16 98.07 12/20/2017 06:22:05 74.63, 79.39 98.01 65.90 67
13 12/23/2017 00:16:08 74.04, 169.71 97.46 12/23/2017 00:15:21 74.03, 169.60 97.46 3.44 47




NCC Satellite Simultaneous Nadir Overpasses (SNOs) Prediction Service
